Showing default

IONOSFERA-M 01, 61735

Orbit data source: Space-Track

IONOSFERA-M 01, 61735 is a payload satellite owned by VNIIEM (CIS) in SSO that was launched on Mon, 04 Nov 2024 UTC via a SOYUZ-2-1B launch vehicle from the Vostochny Cosmodrome (VOSTO). Payload-class satellites include a variety of spacecraft equipped with specific instruments for various scientific and technological missions. These include communications satellites like Starlink; space stations such as the ISS; scientific satellites like the Hubble; Earth observation satellites from companies like Planet Labs, Umbra, and HawkEye 360; GPS; miniature CubeSats for education and research; and military/defense satellites.

Loading next visibility...
Identifier
61735, 2024-199A
Orbit
SSO
Last TLE update
3 hours ago
Origin
Manufacturer
VNIIEM
Mission
Operational Civil Science
Bus & Motor
IONOSFERA-M, Unknown motor
Mass
430 kg wet, 430 kg dry
Launch date (UTC)
2024-11-04 (8 months ago)
Launch vehicle
SOYUZ-2-1B
Launch site
Vostochny Cosmodrome (VOSTO)
Object type
Payload
Rocket body
Debris
Shape & HBR
Box + 1 Ant, 10 m
Radar Cross Section
2.359 m², Large (>1 m²)

Expand to show TLE details & history

TLE from 3 hours ago
0 IONOSFERA-M 01
1 61735U 24199A   25186.89948253  .00000016  00000-0  26821-4 0  9997
2 61735  98.7664  57.7881 0002157  73.7884 286.3531 14.22673931 78463
Epoch: 2025-07-05T21:35Z
TLE epoch observation values (Epoch: 2025-07-05T21:35:15.29Z)
Latitude
-0.00003°
Longitude
169.84349°
Altitude
818.804 km
Speed
7.444 km/s
True Right ascension
03h 51m 09s
True Declination
0° 00' 00"
Sunlit
Object was in daylight at epoch
Visualization orbit readout
Latitude
-40.59456°
Longitude
-17.59692°
Altitude
833.131 km
Speed
7.434 km/s
Apparent Right ascension
19h 18m 28s
Apparent Declination
-64° 39' 59"
Sunlit
Object is in full shadow
Visualization observer readout
Local Sidereal Time
12:15:07
Azimuth
146.345° SSE
Elevation
-42.029°
Doppler factor
1
Orbital elements
Apogee altitude
815.033 km
Perigee altitude
811.93 km
Semi-major axis
7,191.619 km
Eccentricity
0.00022
Inclination
98.7664°
RAAN
57.7881°
Arg. of periapsis
73.7884°
True anomaly
Unknown
Mean anomaly
286.3531°
Eccentric anomaly
Unknown
Mean motion
3.5588 °/min
Orbital period
101.16 mins
BSTAR
0.000026821
Loading maneuver chart data...
Loading SW <> Apogee altitude chart data...
Loading historical data...
Loading historical data...
Loading historical data...
Loading historical data...
Loading historical data...
Loading historical data...
Loading historical data...

IONOSFERA-M 01 Visibility forecast

Observer location: undefined°, undefined°

Span
Click to sort rows by Start time (UTC) header in descending order
Start Az.
Max El. time (UTC)
Max El. Az.
Max El.
End time (UTC)
End Az.
7 mins2025-07-06 03:15:37.982Z50.503° ENE2025-07-06 03:18:37.982Z90.387° ESE20.815°2025-07-06 03:22:37.982Z142.467° SSE
8 mins2025-07-06 04:55:37.982Z352.188° N2025-07-06 04:58:37.982Z301.991° NW34.427°2025-07-06 05:03:37.982Z220.982° SW
8 mins2025-07-06 14:36:37.982Z124.487° SE2025-07-06 14:39:37.982Z79.96° E29.441°2025-07-06 14:44:37.982Z5.504° NNE
7 mins2025-07-06 16:16:37.982Z212.878° SW2025-07-06 16:19:37.982Z254.67° W25.054°2025-07-06 16:23:37.982Z315.74° NNW
|